QPF
0.00 0.00 0.00 0.00 0.02 0.00 0.02 0.02 0.00 0.00 0.00 0.00 0.00 0.00 0.00 0.02 0.09 0.17 0.01 0.00 0.00 0.00 0.00 0.00 0.01 0.00 0.00 0.00 0.00 0.00 0.00 0.00 0.00 0.02 0.02 0.01 0.01 0.00 0.01 0.00 0.00 0.00 0.00 0.00 0.00 0.00 0.00 0.00 0.00
0.00 0.00 0.00 0.00 0.01 0.01 0.01 0.00 0.00 0.00 0.00 0.00 0.00 0.00 0.00 0.01 0.00 0.00 0.00 0.00 0.00 0.00 0.01 0.00 0.05 0.02 0.00 0.01 0.00 0.00 0.00 0.00 0.01 0.01 0.00 0.02 0.02 0.02 0.01 0.00 0.00 0.00 0.00 0.00 0.00 0.00 0.00 0.00 0.00
0.00 0.00 0.00 0.00 0.00 0.03 0.03 0.00 0.00 0.00 0.00 0.00 0.00 0.00 0.00 0.00 0.00 0.00 0.00 0.00 0.00 0.00 0.00 0.00 0.01 0.01 0.03 0.17 0.04 0.00 0.00 0.02 0.05 0.01 0.01 0.02 0.02 0.00 0.00 0.00 0.00 0.00 0.00 0.00 0.00 0.00 0.00 0.00 0.00
0.00 0.00 0.00 0.00 0.04 0.01 0.00 0.00 0.00 0.00 0.00 0.00 0.00 0.00 0.00 0.00 0.00 0.00 0.00 0.00 0.00 0.00 0.00 0.01 0.00 0.00 0.06 0.16 0.04 0.12 0.11 0.09 0.13 0.11 0.07 0.05 0.06 0.01 0.00 0.00 0.00 0.00 0.00 0.00 0.00 0.00 0.00 0.00 0.00
0.00 0.00 0.00 0.01 0.01 0.00 0.00 0.00 0.00 0.00 0.00 0.00 0.00 0.00 0.00 0.00 0.00 0.00 0.00 0.00 0.00 0.00 0.00 0.02 0.03 0.00 0.01 0.04 0.02 0.07 0.08 0.09 0.08 0.17 0.19 0.07 0.04 0.01 0.02 0.00 0.01 0.00 0.00 0.00 0.00 0.00 0.00 0.00 0.00
0.00 0.00 0.00 0.00 0.01 0.00 0.00 0.00 0.00 0.00 0.00 0.00 0.00 0.00 0.00 0.00 0.01 0.00 0.00 0.00 0.00 0.01 0.01 0.05 0.01 0.01 0.01 0.01 0.00 0.01 0.02 0.05 0.13 0.22 0.29 0.23 0.07 0.06 0.01 0.02 0.01 0.00 0.00 0.00 0.00 0.00 0.00 0.00 0.02
0.00 0.00 0.00 0.00 0.03 0.04 0.00 0.00 0.00 0.00 0.00 0.00 0.00 0.00 0.00 0.00 0.00 0.00 0.00 0.01 0.01 0.01 0.03 0.01 0.01 0.01 0.02 0.00 0.00 0.01 0.00 0.05 0.19 0.18 0.20 0.16 0.14 0.04 0.01 0.01 0.00 0.00 0.00 0.00 0.00 0.00 0.00 0.00 0.02
0.00 0.00 0.00 0.01 0.05 0.06 0.00 0.00 0.00 0.00 0.00 0.00 0.00 0.00 0.00 0.00 0.00 0.00 0.00 0.00 0.00 0.00 0.01 0.05 0.01 0.00 0.00 0.00 0.01 0.01 0.01 0.07 0.24 0.16 0.11 0.08 0.05 0.02 0.02 0.00 0.00 0.00 0.00 0.00 0.00 0.00 0.00 0.01 0.06
0.00 0.03 0.02 0.00 0.00 0.04 0.00 0.00 0.00 0.00 0.00 0.00 0.00 0.00 0.00 0.00 0.00 0.00 0.00 0.00 0.00 0.00 0.01 0.03 0.07 0.10 0.02 0.00 0.00 0.01 0.06 0.13 0.14 0.06 0.03 0.02 0.02 0.02 0.00 0.00 0.00 0.00 0.00 0.00 0.00 0.00 0.00 0.00 0.00
0.00 0.01 0.05 0.00 0.00 0.00 0.00 0.00 0.00 0.00 0.00 0.00 0.00 0.00 0.00 0.00 0.00 0.00 0.00 0.00 0.00 0.00 0.00 0.04 0.02 0.01 0.00 0.00 0.03 0.01 0.01 0.03 0.07 0.02 0.01 0.01 0.00 0.00 0.00 0.00 0.00 0.00 0.00 0.00 0.00 0.00 0.00 0.00 0.00
0.00 0.01 0.00 0.00 0.00 0.00 0.00 0.00 0.00 0.00 0.00 0.00 0.00 0.00 0.00 0.00 0.00 0.00 0.00 0.00 0.00 0.00 0.01 0.07 0.07 0.03 0.00 0.03 0.05 0.01 0.01 0.00 0.01 0.06 0.03 0.00 0.00 0.00 0.00 0.00 0.00 0.00 0.00 0.00 0.00 0.00 0.00 0.00 0.00
0.00 0.00 0.00 0.00 0.00 0.00 0.00 0.00 0.00 0.00 0.00 0.00 0.00 0.00 0.00 0.00 0.00 0.00 0.00 0.00 0.00 0.00 0.01 0.02 0.01 0.05 0.05 0.04 0.04 0.01 0.01 0.01 0.00 0.06 0.02 0.00 0.00 0.00 0.00 0.00 0.00 0.00 0.00 0.00 0.00 0.00 0.00 0.00 0.00
0.00 0.00 0.00 0.00 0.00 0.00 0.00 0.00 0.00 0.00 0.00 0.00 0.00 0.00 0.00 0.00 0.00 0.00 0.00 0.00 0.00 0.00 0.00 0.00 0.01 0.10 0.14 0.08 0.00 0.01 0.01 0.00 0.00 0.01 0.00 0.00 0.00 0.00 0.00 0.00 0.00 0.00 0.00 0.00 0.00 0.00 0.00 0.00 0.00
0.00 0.00 0.00 0.00 0.00 0.00 0.00 0.00 0.00 0.00 0.00 0.00 0.00 0.00 0.00 0.00 0.00 0.00 0.00 0.00 0.00 0.00 0.00 0.00 0.01 0.05 0.10 0.08 0.00 0.00 0.00 0.00 0.00 0.00 0.00 0.00 0.00 0.00 0.00 0.00 0.00 0.00 0.00 0.00 0.00 0.00 0.00 0.00 0.00
0.00 0.00 0.00 0.00 0.00 0.00 0.00 0.01 0.00 0.00 0.00 0.00 0.00 0.00 0.00 0.00 0.00 0.00 0.00 0.00 0.00 0.00 0.00 0.00 0.00 0.02 0.13 0.11 0.00 0.00 0.00 0.00 0.00 0.00 0.00 0.00 0.00 0.00 0.00 0.00 0.00 0.00 0.00 0.00 0.00 0.00 0.00 0.00 0.00
0.00 0.00 0.00 0.00 0.00 0.00 0.00 0.01 0.00 0.00 0.00 0.00 0.00 0.00 0.00 0.00 0.00 0.00 0.00 0.00 0.00 0.00 0.00 0.00 0.00 0.00 0.05 0.04 0.00 0.00 0.00 0.00 0.00 0.00 0.00 0.00 0.00 0.00 0.00 0.00 0.00 0.00 0.00 0.00 0.00 0.00 0.00 0.00 0.00
0.00 0.00 0.00 0.00 0.00 0.00 0.00 0.01 0.00 0.00 0.00 0.00 0.00 0.00 0.00 0.00 0.00 0.00 0.00 0.00 0.00 0.00 0.00 0.00 0.00 0.00 0.03 0.02 0.00 0.00 0.00 0.00 0.00 0.00 0.00 0.00 0.00 0.00 0.00 0.00 0.00 0.00 0.00 0.00 0.00 0.00 0.00 0.00 0.00
0.00 0.00 0.00 0.00 0.00 0.00 0.00 0.00 0.00 0.00 0.00 0.00 0.00 0.00 0.00 0.00 0.00 0.00 0.00 0.00 0.00 0.00 0.00 0.00 0.00 0.00 0.00 0.01 0.00 0.00 0.00 0.00 0.00 0.00 0.00 0.00 0.00 0.00 0.00 0.00 0.00 0.00 0.00 0.00 0.00 0.00 0.00 0.00 0.00
0.00 0.00 0.00 0.00 0.00 0.00 0.00 0.00 0.00 0.00 0.00 0.00 0.00 0.00 0.00 0.00 0.00 0.00 0.00 0.00 0.00 0.00 0.00 0.00 0.00 0.00 0.00 0.00 0.00 0.00 0.00 0.00 0.00 0.00 0.00 0.00 0.00 0.00 0.00 0.00 0.00 0.00 0.00 0.00 0.00 0.00 0.00 0.00 0.00
0.00 0.00 0.00 0.00 0.00 0.00 0.00 0.00 0.00 0.00 0.00 0.00 0.00 0.00 0.00 0.00 0.00 0.00 0.00 0.00 0.00 0.00 0.00 0.00 0.00 0.00 0.00 0.00 0.00 0.00 0.00 0.00 0.00 0.00 0.00 0.00 0.00 0.00 0.00 0.00 0.00 0.00 0.00 0.00 0.00 0.00 0.00 0.00 0.00
0.00 0.00 0.00 0.00 0.00 0.00 0.00 0.00 0.00 0.00 0.00 0.00 0.00 0.00 0.00 0.00 0.00 0.00 0.00 0.00 0.00 0.00 0.00 0.00 0.00 0.00 0.00 0.00 0.00 0.00 0.00 0.00 0.00 0.00 0.00 0.00 0.00 0.00 0.00 0.00 0.00 0.00 0.00 0.00 0.00 0.00 0.00 0.00 0.00
0.00 0.00 0.00 0.00 0.00 0.00 0.00 0.00 0.00 0.00 0.00 0.00 0.00 0.00 0.00 0.00 0.00 0.00 0.00 0.00 0.00 0.00 0.00 0.00 0.00 0.00 0.00 0.00 0.00 0.00 0.00 0.00 0.00 0.00 0.00 0.00 0.00 0.00 0.00 0.00 0.00 0.00 0.00 0.00 0.00 0.00 0.00 0.00 0.00
0.00 0.00 0.00 0.00 0.00 0.00 0.00 0.00 0.00 0.00 0.00 0.00 0.00 0.00 0.00 0.00 0.00 0.00 0.00 0.00 0.00 0.00 0.00 0.00 0.00 0.00 0.00 0.00 0.00 0.00 0.00 0.00 0.00 0.00 0.02 0.02 0.00 0.00 0.00 0.00 0.00 0.00 0.00 0.00 0.00 0.04 0.06 0.01 0.00
0.00 0.00 0.00 0.00 0.00 0.00 0.00 0.00 0.00 0.00 0.00 0.00 0.00 0.00 0.00 0.00 0.00 0.00 0.00 0.00 0.00 0.00 0.00 0.00 0.00 0.00 0.00 0.00 0.00 0.00 0.00 0.00 0.00 0.00 0.01 0.00 0.00 0.00 0.00 0.00 0.00 0.00 0.00 0.02 0.01 0.02 0.06 0.04 0.04
0.00 0.00 0.00 0.00 0.00 0.00 0.00 0.00 0.00 0.00 0.00 0.00 0.00 0.00 0.00 0.00 0.00 0.00 0.00 0.00 0.00 0.00 0.00 0.00 0.00 0.00 0.00 0.00 0.00 0.00 0.00 0.00 0.02 0.05 0.02 0.01 0.00 0.00 0.00 0.00 0.00 0.00 0.00 0.00 0.05 0.05 0.03 0.02 0.02
0.00 0.00 0.00 0.00 0.00 0.00 0.00 0.00 0.00 0.00 0.00 0.00 0.00 0.00 0.00 0.00 0.00 0.00 0.00 0.00 0.00 0.00 0.00 0.00 0.00 0.00 0.00 0.00 0.00 0.00 0.00 0.00 0.00 0.00 0.00 0.00 0.00 0.00 0.00 0.00 0.00 0.00 0.00 0.00 0.01 0.01 0.00 0.00 0.00
0.00 0.00 0.00 0.00 0.00 0.00 0.00 0.00 0.00 0.00 0.00 0.00 0.00 0.00 0.00 0.00 0.00 0.00 0.00 0.00 0.00 0.00 0.00 0.00 0.00 0.00 0.00 0.00 0.00 0.00 0.00 0.00 0.00 0.00 0.00 0.00 0.00 0.00 0.00 0.00 0.00 0.00 0.00 0.00 0.05 0.02 0.00 0.00 0.00
0.00 0.00 0.00 0.00 0.00 0.00 0.00 0.00 0.00 0.00 0.00 0.00 0.00 0.00 0.00 0.00 0.00 0.00 0.00 0.00 0.00 0.00 0.00 0.00 0.00 0.01 0.00 0.00 0.00 0.00 0.00 0.00 0.00 0.00 0.00 0.00 0.00 0.00 0.00 0.00 0.00 0.00 0.00 0.02 0.07 0.01 0.03 0.01 0.00
0.00 0.00 0.00 0.00 0.00 0.00 0.00 0.00 0.00 0.00 0.00 0.00 0.00 0.00 0.00 0.00 0.00 0.00 0.00 0.00 0.00 0.00 0.00 0.00 0.00 0.00 0.00 0.00 0.00 0.00 0.00 0.00 0.00 0.00 0.00 0.00 0.00 0.00 0.00 0.04 0.08 0.04 0.02 0.04 0.03 0.01 0.07 0.01 0.04
0.00 0.00 0.00 0.00 0.00 0.00 0.00 0.00 0.00 0.00 0.00 0.00 0.00 0.00 0.00 0.00 0.00 0.00 0.00 0.00 0.00 0.00 0.00 0.00 0.00 0.00 0.00 0.00 0.00 0.00 0.00 0.00 0.00 0.00 0.00 0.00 0.00 0.00 0.00 0.00 0.03 0.09 0.09 0.09 0.14 0.14 0.06 0.07 0.09
MSLP
1011.13 1010.52 1010.35 1009.68 1008.93 1006.65 1006.64 1006.95 1006.44 1006.92 1007.11 1007.84 1008.23 1008.50 1008.87 1009.89 1010.19 1011.73 1013.02 1014.50 1014.48 1014.92 1015.45 1015.61 1016.12 1016.31 1016.47 1016.63 1016.82 1017.02 1017.09 1017.15 1017.23 1017.25 1017.27 1017.40 1017.52 1017.61 1017.66 1017.64 1017.70 1017.85 1017.90 1018.01 1018.16 1018.34 1018.46 1018.54 1018.69
1010.34 1010.60 1010.04 1008.68 1007.65 1006.07 1006.83 1007.12 1006.94 1007.24 1007.78 1008.13 1008.84 1009.11 1009.35 1010.29 1011.32 1012.44 1013.22 1014.43 1014.64 1014.98 1015.23 1015.47 1016.36 1016.55 1016.73 1016.79 1016.91 1017.14 1017.28 1017.37 1017.55 1017.55 1017.53 1017.63 1017.75 1017.87 1017.90 1017.95 1018.04 1018.15 1018.18 1018.27 1018.44 1018.46 1018.59 1018.69 1018.75
1010.65 1010.31 1008.84 1007.91 1006.86 1006.60 1006.93 1007.38 1007.66 1008.09 1008.36 1008.38 1009.02 1009.74 1010.05 1011.04 1012.04 1012.34 1013.01 1014.63 1015.14 1015.22 1015.40 1015.83 1016.44 1016.79 1016.89 1016.99 1017.25 1017.32 1017.46 1017.63 1017.69 1017.65 1017.63 1017.77 1017.96 1018.05 1018.17 1018.29 1018.29 1018.35 1018.44 1018.56 1018.71 1018.71 1018.83 1018.81 1018.85
1010.31 1009.49 1008.86 1007.81 1007.33 1007.64 1007.38 1007.69 1007.94 1008.26 1008.53 1008.87 1009.17 1009.70 1011.14 1012.07 1012.70 1012.85 1013.53 1014.22 1015.00 1015.43 1015.74 1016.31 1016.67 1016.82 1016.98 1017.09 1017.32 1017.41 1017.56 1017.81 1017.89 1017.89 1017.79 1018.03 1018.05 1018.29 1018.48 1018.52 1018.54 1018.69 1018.79 1018.92 1018.96 1019.02 1019.00 1019.00 1018.99
1010.02 1009.16 1008.06 1007.76 1008.01 1008.20 1008.53 1008.78 1008.09 1007.97 1008.49 1008.92 1009.41 1009.88 1011.36 1012.56 1013.03 1013.38 1013.72 1013.69 1013.97 1015.02 1015.35 1016.09 1016.79 1016.97 1017.11 1017.38 1017.40 1017.55 1017.75 1017.85 1017.93 1018.01 1018.16 1018.23 1018.40 1018.53 1018.69 1018.79 1018.85 1018.98 1019.10 1019.23 1019.21 1019.20 1019.23 1019.26 1019.18
1008.94 1008.99 1008.12 1008.04 1008.41 1008.74 1008.74 1008.85 1008.60 1008.30 1008.72 1009.30 1009.49 1010.14 1011.44 1012.54 1012.94 1013.24 1013.30 1013.43 1013.47 1013.90 1014.79 1015.84 1016.79 1017.00 1017.19 1017.31 1017.49 1017.60 1017.83 1018.04 1018.17 1018.37 1018.38 1018.48 1018.56 1018.79 1018.92 1019.03 1019.13 1019.19 1019.28 1019.36 1019.40 1019.46 1019.51 1019.50 1019.32
1008.76 1008.77 1008.75 1008.41 1009.17 1009.15 1009.43 1009.35 1008.59 1008.46 1008.53 1008.98 1009.58 1009.75 1011.59 1012.45 1012.93 1013.26 1013.58 1013.86 1014.00 1014.56 1015.13 1016.19 1016.74 1017.09 1017.21 1017.48 1017.62 1017.80 1017.88 1018.09 1018.37 1018.56 1018.61 1018.55 1018.64 1019.00 1019.13 1019.21 1019.34 1019.37 1019.40 1019.54 1019.58 1019.66 1019.78 1019.61 1019.47
1009.32 1008.77 1008.92 1009.34 1009.55 1009.58 1009.86 1009.40 1009.48 1008.75 1008.96 1009.40 1009.71 1009.40 1011.06 1012.29 1013.07 1013.32 1013.63 1014.02 1014.41 1014.73 1015.16 1015.97 1015.95 1016.28 1016.69 1017.27 1017.72 1017.62 1018.07 1018.24 1018.52 1018.61 1018.71 1018.89 1019.01 1019.14 1019.23 1019.29 1019.43 1019.49 1019.51 1019.61 1019.70 1019.83 1019.81 1019.68 1019.57
1009.53 1008.66 1008.39 1009.11 1009.47 1009.61 1009.84 1009.58 1009.68 1009.46 1009.13 1009.38 1009.90 1009.81 1010.39 1012.36 1013.03 1013.25 1013.68 1014.25 1014.95 1015.05 1015.54 1015.81 1016.05 1016.78 1016.92 1017.30 1017.81 1017.97 1018.03 1018.45 1018.49 1018.68 1018.89 1019.06 1018.85 1018.80 1018.85 1019.38 1019.53 1019.57 1019.56 1019.66 1019.78 1019.85 1019.80 1019.72 1019.55
1008.35 1007.85 1008.64 1008.91 1009.04 1009.23 1009.83 1009.64 1009.87 1009.31 1009.10 1009.48 1010.09 1010.72 1011.53 1012.45 1012.95 1012.96 1013.37 1013.66 1014.33 1014.78 1015.28 1016.25 1016.07 1016.77 1016.92 1017.07 1017.83 1017.97 1018.26 1018.24 1018.42 1018.66 1019.01 1018.86 1018.18 1018.41 1018.56 1019.39 1019.67 1019.67 1019.74 1019.76 1019.82 1019.79 1019.60 1019.38 1018.53
1008.31 1008.28 1008.61 1008.89 1009.29 1009.33 1009.63 1009.85 1009.96 1009.27 1008.91 1008.94 1009.75 1010.80 1011.68 1012.29 1012.71 1012.74 1013.15 1013.46 1013.77 1014.42 1015.05 1016.30 1016.56 1016.51 1016.63 1016.88 1017.64 1017.61 1017.79 1017.68 1018.33 1019.00 1018.96 1018.57 1018.47 1018.85 1018.47 1019.06 1019.16 1019.06 1019.60 1019.00 1019.22 1019.24 1018.42 1018.69 1018.58
1007.92 1008.60 1008.74 1009.12 1009.57 1009.69 1009.80 1010.03 1009.82 1009.81 1010.06 1009.48 1009.75 1010.73 1011.47 1011.92 1012.29 1012.48 1012.78 1013.31 1013.91 1014.60 1015.37 1015.98 1015.97 1016.81 1016.73 1017.14 1017.73 1017.38 1017.74 1017.59 1018.55 1019.10 1018.94 1018.77 1018.69 1018.69 1018.65 1018.46 1018.86 1018.98 1018.79 1019.18 1018.92 1018.28 1018.66 1018.50 1018.85
1008.01 1008.46 1008.92 1009.18 1009.49 1009.66 1009.99 1010.14 1009.52 1010.12 1010.25 1009.74 1010.03 1010.71 1011.14 1011.54 1012.12 1012.55 1012.99 1013.61 1014.07 1014.67 1015.32 1015.77 1016.22 1017.01 1017.14 1017.49 1018.10 1018.44 1018.29 1018.27 1018.41 1018.52 1018.68 1018.48 1018.50 1018.62 1018.93 1019.00 1018.72 1018.81 1018.90 1018.79 1018.66 1018.51 1018.39 1018.52 1018.27
1008.11 1008.49 1008.77 1009.09 1009.32 1009.54 1009.76 1009.78 1009.76 1009.88 1010.65 1010.15 1010.30 1010.50 1010.86 1011.29 1011.87 1012.57 1013.12 1013.63 1014.21 1014.68 1015.23 1015.68 1016.38 1016.92 1017.27 1017.30 1018.31 1018.68 1018.78 1018.43 1018.75 1017.99 1019.02 1019.51 1018.84 1018.84 1018.83 1018.95 1018.73 1018.81 1019.02 1018.86 1018.49 1018.40 1018.22 1018.11 1017.90
1008.13 1008.15 1008.56 1008.74 1009.07 1009.17 1009.63 1009.49 1009.52 1009.73 1010.25 1009.96 1010.10 1010.29 1010.65 1011.08 1011.73 1012.31 1012.96 1013.54 1014.17 1014.66 1015.34 1015.92 1016.25 1016.62 1017.29 1017.65 1018.44 1018.68 1018.78 1018.93 1019.37 1018.83 1019.35 1019.24 1019.45 1019.18 1018.82 1018.77 1018.75 1018.76 1019.08 1019.18 1018.74 1018.54 1018.26 1017.88 1017.92
1007.70 1007.92 1007.42 1008.14 1008.82 1009.18 1009.41 1008.02 1008.81 1009.74 1009.92 1009.81 1010.06 1010.09 1010.49 1010.92 1011.39 1012.05 1012.67 1013.19 1013.92 1014.45 1015.35 1015.95 1016.01 1016.39 1017.46 1017.60 1018.82 1018.66 1018.65 1018.95 1019.51 1019.63 1019.55 1019.70 1019.60 1019.24 1019.18 1018.74 1018.63 1018.82 1018.90 1018.55 1018.43 1018.15 1017.90 1017.90 1017.76
1007.01 1006.53 1006.99 1007.40 1008.58 1008.58 1009.04 1007.97 1008.42 1009.26 1009.39 1009.37 1009.45 1010.04 1010.18 1010.59 1011.14 1011.67 1012.28 1013.00 1013.47 1014.41 1015.31 1015.85 1016.21 1016.57 1017.13 1017.52 1018.35 1018.73 1018.95 1019.30 1019.54 1019.54 1019.71 1019.83 1019.71 1019.25 1018.83 1018.70 1018.76 1019.19 1018.71 1018.45 1018.37 1018.19 1018.16 1017.95 1017.81
1005.82 1006.36 1006.60 1006.83 1007.65 1008.34 1008.03 1007.86 1007.94 1008.59 1008.82 1008.81 1009.11 1009.19 1009.53 1009.98 1010.38 1011.09 1011.80 1012.51 1013.19 1014.12 1015.12 1015.80 1016.25 1016.73 1017.17 1017.58 1018.09 1017.81 1017.97 1018.12 1019.49 1019.46 1019.00 1019.24 1019.05 1019.22 1019.17 1018.89 1019.00 1019.06 1018.63 1018.46 1018.53 1018.63 1018.49 1018.21 1018.08
1006.11 1006.29 1006.20 1006.35 1007.29 1007.64 1007.21 1006.96 1006.90 1007.38 1007.95 1008.13 1008.58 1008.86 1008.89 1009.12 1009.67 1010.26 1011.15 1011.98 1012.78 1013.67 1014.67 1015.51 1016.12 1016.70 1017.15 1017.28 1017.44 1017.55 1017.49 1017.89 1018.60 1018.20 1018.46 1018.80 1018.89 1019.17 1019.24 1018.74 1019.12 1019.17 1018.96 1018.84 1019.01 1018.73 1018.63 1018.26 1018.53
1005.93 1005.82 1005.61 1005.97 1007.07 1007.23 1006.30 1005.99 1005.75 1006.10 1006.65 1007.10 1007.52 1007.84 1008.59 1008.29 1008.96 1009.61 1010.37 1011.19 1012.08 1013.05 1014.10 1015.07 1015.78 1016.46 1016.83 1017.06 1017.22 1017.20 1017.33 1017.39 1017.62 1017.79 1018.21 1018.58 1018.79 1019.34 1019.08 1019.04 1018.92 1019.06 1018.77 1019.09 1019.07 1019.09 1018.31 1018.25 1018.48
1005.40 1005.23 1005.33 1005.70 1006.02 1006.32 1006.00 1004.38 1004.28 1004.75 1005.48 1006.17 1006.53 1006.94 1007.14 1007.55 1007.92 1008.90 1009.70 1010.39 1011.36 1012.29 1013.41 1014.41 1015.25 1016.06 1016.49 1016.71 1017.18 1017.52 1017.49 1017.45 1017.70 1017.70 1017.98 1018.15 1018.58 1018.80 1019.26 1019.21 1019.03 1019.09 1019.02 1018.48 1018.99 1019.00 1018.86 1017.95 1018.45
1004.64 1004.75 1005.36 1005.40 1005.48 1004.35 1005.20 1003.37 1003.03 1003.33 1004.00 1004.77 1005.25 1005.75 1006.03 1006.52 1007.24 1007.80 1008.83 1009.71 1010.53 1011.55 1012.73 1013.83 1014.84 1015.60 1016.23 1016.70 1016.78 1016.96 1016.84 1016.77 1016.81 1017.13 1017.26 1017.44 1018.27 1018.48 1018.85 1019.09 1019.22 1019.25 1018.70 1018.60 1018.76 1018.80 1018.80 1018.92 1018.07
1004.46 1005.11 1005.15 1004.98 1004.66 1004.22 1003.41 1003.29 1001.91 1002.44 1002.45 1002.67 1003.37 1004.06 1004.74 1005.59 1006.30 1006.90 1007.85 1008.82 1009.80 1010.94 1011.98 1013.06 1014.33 1015.24 1015.66 1016.44 1016.57 1016.80 1016.74 1016.38 1016.50 1016.63 1016.85 1017.69 1017.96 1018.18 1018.29 1018.57 1018.85 1019.09 1019.02 1018.76 1018.78 1018.82 1019.12 1018.85 1018.59
1004.65 1004.95 1004.88 1004.69 1003.90 1003.10 1002.04 1002.43 1001.07 1000.60 1001.13 1001.27 1001.76 1002.49 1003.47 1004.46 1005.36 1006.25 1007.15 1008.10 1009.24 1010.40 1011.42 1012.42 1013.71 1014.65 1015.31 1015.93 1016.55 1016.74 1016.49 1016.34 1016.12 1016.50 1016.56 1016.75 1017.26 1017.72 1017.95 1018.09 1018.49 1018.78 1018.51 1018.60 1018.70 1018.88 1019.11 1019.18 1019.08
1004.56 1003.86 1003.16 1002.80 1002.19 1001.52 1002.10 1002.01 1000.70 1000.39 1000.35 1000.52 1000.85 1001.59 1002.49 1003.50 1004.72 1005.52 1006.43 1007.37 1008.51 1009.62 1010.91 1011.85 1013.07 1013.90 1014.59 1015.27 1015.81 1016.36 1016.59 1016.64 1016.58 1016.84 1016.59 1015.86 1016.09 1016.61 1017.15 1017.64 1017.97 1018.20 1018.42 1018.37 1018.63 1018.89 1018.99 1019.10 1019.09
1003.44 1003.04 1002.09 1001.51 1001.18 1000.95 1001.83 1000.97 999.93 999.84 999.85 1000.10 1000.58 1001.12 1001.87 1002.67 1003.57 1004.78 1005.89 1007.05 1007.88 1008.88 1010.22 1011.23 1012.23 1013.11 1014.25 1014.57 1015.10 1015.67 1016.13 1016.19 1016.15 1016.19 1015.86 1015.86 1015.60 1015.80 1016.13 1017.00 1017.21 1017.57 1017.80 1018.08 1018.26 1018.52 1018.61 1018.53 1018.82
1002.33 1002.68 1002.17 1001.61 1001.19 1001.43 1000.67 1000.00 999.53 999.06 999.21 999.35 999.79 1000.71 1001.57 1002.28 1002.96 1004.12 1005.34 1006.56 1007.56 1008.44 1009.35 1010.66 1011.59 1012.70 1013.21 1013.68 1014.71 1014.96 1015.44 1015.72 1015.45 1015.63 1015.93 1015.95 1015.86 1015.40 1015.94 1016.43 1016.82 1016.97 1017.30 1017.60 1017.68 1018.05 1018.09 1018.35 1018.45
1002.16 1001.86 1001.72 1001.25 1000.91 1000.29 999.72 999.55 999.13 998.93 998.80 999.00 999.32 1000.14 1001.13 1002.18 1002.96 1003.69 1004.71 1005.88 1006.86 1007.95 1008.97 1009.90 1010.74 1011.45 1012.09 1012.81 1013.58 1013.96 1014.44 1014.96 1015.24 1015.41 1015.61 1015.55 1015.55 1015.85 1015.81 1016.33 1016.52 1016.67 1016.82 1017.06 1017.69 1017.65 1017.74 1018.09 1018.01
1001.72 1001.65 1001.55 1001.20 1000.82 999.89 999.24 998.34 998.65 998.80 998.82 999.21 999.21 1000.01 1000.66 1001.81 1002.74 1003.58 1004.41 1005.45 1006.39 1007.36 1008.33 1009.24 1010.18 1010.82 1011.46 1011.47 1012.33 1012.81 1013.33 1014.00 1014.62 1014.83 1015.13 1015.38 1015.42 1015.59 1015.99 1016.26 1016.50 1016.62 1016.51 1016.69 1016.98 1017.17 1017.22 1017.64 1017.69
1000.04 1000.02 1000.15 1000.13 999.77 999.85 999.51 998.66 998.22 998.62 998.80 999.27 999.56 1000.18 1001.01 1001.69 1002.57 1003.48 1004.39 1005.25 1006.07 1006.94 1007.73 1008.56 1009.25 1009.81 1010.23 1010.81 1012.11 1012.11 1012.67 1013.25 1013.41 1013.97 1014.27 1014.70 1014.93 1015.16 1015.43 1015.69 1015.84 1016.33 1016.33 1016.49 1016.75 1016.93 1016.79 1017.03 1017.37
Thickness
5802 5807 5808 5803 5781 5801 5778 5779 5805 5788 5790 5800 5800 5791 5786 5781 5773 5752 5779 5769 5771 5769 5766 5766 5762 5761 5761 5762 5762 5761 5761 5762 5761 5762 5763 5761 5761 5760 5759 5759 5758 5757 5754 5752 5751 5749 5746 5744 5740
5808 5806 5804 5799 5782 5781 5774 5791 5786 5792 5796 5802 5794 5790 5784 5769 5781 5772 5772 5771 5769 5767 5767 5767 5761 5759 5760 5761 5761 5759 5759 5760 5759 5761 5762 5760 5759 5758 5758 5757 5757 5755 5753 5752 5750 5749 5746 5744 5742
5806 5808 5796 5791 5791 5771 5773 5789 5788 5790 5797 5795 5786 5789 5783 5771 5775 5777 5782 5769 5766 5763 5764 5761 5760 5757 5758 5760 5758 5758 5757 5757 5758 5760 5761 5760 5758 5757 5757 5756 5755 5754 5752 5751 5749 5748 5746 5745 5743
5801 5802 5799 5784 5773 5782 5788 5792 5795 5788 5794 5796 5792 5777 5780 5781 5772 5779 5780 5773 5768 5765 5762 5759 5756 5756 5758 5759 5757 5758 5757 5756 5755 5757 5760 5758 5757 5756 5755 5755 5754 5752 5751 5750 5748 5746 5747 5745 5745
5802 5796 5780 5775 5773 5781 5784 5784 5799 5791 5790 5789 5789 5776 5769 5774 5778 5777 5776 5779 5776 5768 5765 5760 5757 5756 5759 5757 5758 5758 5757 5756 5756 5756 5754 5755 5754 5754 5753 5753 5752 5751 5750 5748 5748 5747 5746 5746 5746
5789 5790 5770 5762 5767 5777 5786 5791 5792 5792 5791 5786 5783 5778 5771 5779 5776 5777 5780 5778 5778 5776 5769 5763 5756 5758 5757 5757 5757 5757 5756 5754 5754 5751 5751 5750 5752 5751 5752 5753 5752 5752 5751 5750 5749 5747 5747 5748 5747
5786 5777 5761 5771 5758 5766 5772 5790 5790 5790 5790 5785 5791 5776 5773 5773 5778 5779 5778 5776 5775 5770 5766 5760 5757 5757 5756 5756 5757 5756 5756 5753 5752 5751 5749 5750 5749 5749 5751 5753 5752 5752 5753 5752 5750 5748 5748 5748 5748
5788 5785 5763 5759 5753 5756 5773 5786 5787 5791 5783 5798 5795 5778 5765 5775 5778 5779 5778 5774 5771 5769 5766 5761 5763 5761 5761 5758 5757 5756 5755 5754 5752 5752 5750 5748 5748 5749 5752 5754 5753 5755 5755 5754 5752 5751 5751 5751 5751
5794 5772 5766 5761 5758 5763 5780 5777 5788 5796 5789 5792 5790 5791 5793 5782 5779 5775 5771 5768 5763 5765 5764 5763 5762 5758 5759 5758 5755 5755 5755 5753 5750 5752 5749 5747 5752 5753 5756 5755 5754 5756 5757 5756 5755 5754 5754 5754 5755
5789 5781 5768 5784 5784 5777 5776 5781 5777 5785 5785 5782 5781 5788 5786 5780 5775 5773 5769 5767 5765 5764 5765 5760 5763 5759 5760 5760 5756 5754 5754 5755 5754 5752 5749 5751 5757 5757 5759 5755 5755 5757 5758 5758 5758 5758 5758 5760 5765
5789 5774 5785 5786 5786 5787 5780 5778 5784 5785 5779 5788 5779 5779 5779 5777 5774 5775 5772 5771 5771 5770 5767 5759 5758 5760 5761 5761 5756 5757 5756 5758 5754 5750 5751 5754 5755 5755 5761 5758 5759 5761 5760 5763 5763 5763 5768 5766 5767
5782 5788 5789 5785 5784 5781 5774 5779 5778 5781 5775 5794 5793 5786 5780 5776 5776 5776 5776 5773 5771 5767 5763 5761 5762 5757 5758 5757 5754 5758 5757 5759 5753 5750 5751 5753 5755 5757 5760 5764 5762 5762 5765 5763 5766 5771 5768 5769 5768
5783 5785 5787 5789 5785 5783 5781 5771 5781 5775 5783 5795 5791 5785 5780 5780 5778 5779 5777 5774 5771 5765 5763 5762 5760 5754 5755 5753 5750 5751 5753 5754 5753 5753 5753 5756 5757 5758 5758 5760 5762 5764 5765 5767 5769 5770 5772 5770 5773
5790 5786 5785 5787 5785 5784 5774 5776 5780 5781 5778 5784 5784 5782 5782 5781 5779 5775 5773 5770 5767 5766 5764 5764 5759 5756 5754 5754 5747 5747 5747 5750 5750 5756 5750 5748 5754 5756 5758 5760 5762 5764 5765 5767 5771 5771 5774 5775 5777
5788 5777 5781 5783 5784 5780 5781 5767 5767 5783 5779 5780 5781 5783 5782 5781 5780 5775 5774 5771 5769 5767 5764 5761 5759 5757 5754 5750 5744 5744 5745 5746 5744 5748 5746 5748 5749 5752 5759 5761 5762 5764 5764 5765 5769 5771 5774 5778 5777
5777 5778 5767 5782 5781 5780 5776 5767 5779 5781 5776 5775 5777 5780 5779 5779 5779 5778 5777 5775 5772 5770 5763 5760 5762 5760 5751 5749 5741 5742 5744 5744 5742 5742 5744 5745 5748 5752 5756 5761 5763 5763 5765 5769 5771 5775 5777 5778 5780
5777 5765 5767 5773 5780 5779 5770 5768 5782 5783 5778 5776 5781 5777 5779 5778 5778 5778 5779 5775 5774 5769 5763 5759 5759 5757 5753 5749 5744 5741 5741 5741 5740 5741 5741 5743 5746 5751 5757 5762 5762 5761 5766 5769 5772 5775 5776 5777 5779
5763 5763 5771 5768 5778 5773 5771 5770 5782 5781 5778 5778 5779 5782 5781 5779 5780 5781 5779 5779 5775 5770 5765 5760 5758 5755 5752 5748 5745 5747 5747 5746 5739 5741 5746 5747 5751 5751 5754 5760 5761 5761 5766 5770 5771 5771 5775 5777 5779
5778 5769 5767 5780 5780 5770 5773 5776 5784 5788 5782 5779 5778 5777 5780 5782 5788 5788 5783 5781 5776 5771 5765 5760 5756 5754 5752 5751 5749 5748 5749 5749 5746 5749 5749 5749 5752 5751 5753 5759 5759 5760 5763 5766 5768 5771 5772 5776 5777
5776 5768 5771 5781 5776 5771 5779 5777 5793 5793 5788 5787 5784 5783 5773 5786 5787 5787 5784 5782 5779 5774 5768 5762 5758 5755 5754 5753 5752 5754 5753 5754 5753 5752 5751 5751 5752 5751 5753 5755 5759 5760 5764 5764 5766 5768 5773 5776 5778
5774 5770 5770 5768 5779 5779 5774 5784 5792 5801 5798 5793 5794 5792 5791 5788 5789 5786 5785 5784 5782 5776 5771 5765 5761 5757 5756 5756 5752 5750 5751 5752 5751 5753 5753 5753 5752 5753 5751 5753 5756 5758 5761 5768 5766 5768 5769 5773 5775
5765 5788 5776 5771 5765 5764 5781 5761 5793 5800 5795 5794 5796 5796 5796 5794 5795 5795 5790 5787 5785 5781 5777 5770 5763 5759 5757 5755 5753 5752 5752 5751 5757 5757 5759 5759 5754 5753 5752 5753 5754 5755 5761 5765 5767 5769 5770 5769 5772
5772 5781 5776 5775 5770 5773 5782 5767 5793 5802 5794 5802 5805 5804 5804 5800 5799 5798 5795 5792 5790 5787 5779 5774 5766 5761 5760 5755 5755 5753 5752 5759 5762 5762 5761 5755 5754 5754 5755 5754 5754 5754 5756 5761 5764 5766 5765 5769 5770
5787 5773 5773 5774 5776 5755 5790 5772 5785 5802 5803 5811 5817 5816 5811 5806 5804 5803 5802 5798 5792 5790 5784 5777 5767 5763 5762 5757 5753 5752 5753 5757 5761 5759 5759 5761 5759 5756 5755 5756 5755 5754 5757 5760 5762 5763 5763 5764 5766
5774 5770 5752 5752 5761 5763 5784 5768 5788 5810 5819 5820 5818 5819 5818 5814 5807 5803 5800 5798 5795 5790 5783 5778 5770 5765 5764 5761 5757 5753 5752 5753 5754 5754 5757 5766 5766 5763 5761 5759 5758 5757 5755 5757 5759 5760 5763 5764 5764
5770 5774 5765 5739 5755 5773 5778 5759 5789 5820 5828 5829 5827 5824 5823 5819 5817 5809 5803 5799 5797 5791 5786 5781 5773 5769 5763 5764 5761 5758 5755 5756 5757 5759 5764 5765 5769 5770 5769 5763 5762 5759 5758 5758 5760 5762 5764 5767 5765
5775 5759 5791 5773 5786 5758 5779 5794 5812 5825 5822 5828 5828 5823 5818 5819 5818 5811 5805 5801 5797 5793 5790 5782 5778 5771 5769 5766 5759 5761 5758 5757 5760 5762 5762 5764 5766 5772 5769 5765 5764 5763 5762 5761 5763 5764 5765 5765 5765
5780 5795 5764 5776 5738 5739 5774 5773 5776 5800 5810 5821 5823 5821 5819 5816 5814 5813 5809 5803 5802 5797 5792 5787 5784 5778 5774 5769 5764 5767 5765 5762 5761 5761 5761 5763 5766 5765 5768 5765 5765 5764 5764 5763 5761 5763 5765 5763 5765
5772 5767 5773 5778 5773 5756 5756 5780 5811 5806 5813 5812 5823 5822 5823 5816 5812 5809 5807 5806 5803 5800 5795 5790 5785 5782 5776 5779 5775 5773 5771 5767 5763 5763 5762 5762 5763 5764 5762 5762 5762 5762 5765 5766 5764 5764 5766 5763 5763
5798 5789 5789 5764 5766 5774 5768 5772 5823 5817 5818 5818 5819 5819 5819 5817 5813 5809 5804 5801 5799 5796 5794 5791 5790 5787 5786 5784 5774 5776 5774 5770 5769 5766 5765 5764 5763 5765 5763 5763 5764 5761 5764 5764 5762 5761 5764 5762 5761